Regional Weather Roundup
Issued by NWS

Home | Current Version | Previous Version | Graphics & Text | Print | Product List | Glossary On
Versions: 1 2 3 4 5 6 7 8 9 10 11 12 13 14 15 16 17 18 19 20 21 22 23 24 25 26 27 28 29 30 31 32 33 34 35 36 37 38 39 40 41 42 43 44 45 46 47 48 49 50
000
ASUS45 KCYS 291110
RWRWY

WYOMING REGIONAL WEATHER ROUNDUP
NATIONAL WEATHER SERVICE CHEYENNE WY
500 AM MDT TUE JUL 29 2014

NOTE:  "FAIR" INDICATES FEW OR NO CLOUDS BELOW 12,000 FEET
WITH NO SIGNIFICANT WEATHER AND/OR OBSTRUCTIONS TO VISIBILITY.

WYZ001-291200-
YELLOWSTONE NATIONAL PARK

CITY           SKY/WX    TMP DP  RH WIND       PRES   REMARKS
LK YELLOWSTONE   N/A     54  47  77 CALM      30.49R
W YELLOWSTONE  NOT AVBL

$$
WYZ002>013-054>058-071-098>099-291200-
NORTHERN WYOMING

CITY           SKY/WX    TMP DP  RH WIND       PRES   REMARKS
JACKSON        CLOUDY    63  48  59 N6        30.33S
CODY           NOT AVBL
GREYBULL       CLOUDY    78  45  30 N16       30.17S
WORLAND        CLOUDY    70  49  47 S7        30.20R
SHERIDAN       CLOUDY    69  51  52 VRB6      30.24R
BUFFALO        CLOUDY    67  50  54 E7        30.30R
GILLETTE       CLOUDY    62  58  86 SW6       30.26F
HULETT         FAIR      55  52  88 MISG      30.29
NEWCASTLE      RAIN      59  57  94 S7        30.32

$$
WYZ014>020-022>026-101>103-291200-
CENTRAL WYOMING

CITY           SKY/WX    TMP DP  RH WIND       PRES   REMARKS
BIG PINEY      CLOUDY    63  42  46 N5        30.35S
PINEDALE       CLOUDY    59  45  58 NW3       30.35S
DUBOIS         FAIR      63  37  39 SE8       30.37S
LANDER         CLOUDY    68  44  42 W5        30.27R
RIVERTON       MOCLDY    69  43  38 N12       30.27R
CASPER         MOCLDY    62  51  67 E8        30.28R
DOUGLAS        MOCLDY    60  52  74 N13       30.29R

$$
WYZ021-027>030-104>119-291200-
SOUTHERN WYOMING

CITY           SKY/WX    TMP DP  RH WIND       PRES   REMARKS
EVANSTON       CLOUDY    56  54  93 SW5       30.36S
FORT BRIDGER   CLOUDY    63  52  66 SW9       30.37F
ROCK SPRINGS   CLOUDY    64  45  49 SW5       30.32S
DIXON          FAIR      62  49  63 W3        30.36F
RAWLINS        CLOUDY    64  47  53 CALM      30.33R
SARATOGA       PTSUNNY   61  46  59 SE5       30.35F
LARAMIE        MOCLDY    58  51  78 S6        30.36S
CHEYENNE       PTCLDY    56  51  84 W5        30.30S
TORRINGTON     CLEAR     58  56  93 E8        30.21R
PINE BLUFFS    FAIR      54  54 100 CALM      30.25F

$$



USA.gov is the U.S. government's official web portal to all federal, state and local government web resources and services.